contact:dominique.lefevre@mio.osupytheas.fr, maurice.libes@osupytheas.fr, didier.mallarino@osupytheas.fr
Project:EMSO http://www.emso-fr.org/EMSO-France
Depth: 2436.0 m
Title:EMSO Ligure Ouest : Data MII capteur MICROCAT
DateTime_Computer,Latitude,Longitude,Temperature,Conductivity,Pressure,DateTime_Instrument
DateTime_Computer,Latitude,Longitude,degC,S m-1,dbar,DateTime_Instrument
2021-02-18T00:00:20Z,42.805,6.029,13.2983,4.60011,2470.24,2021-2-18T02:01:24Z
2021-02-18T00:03:23Z,42.805,6.029,13.2982,4.60011,2470.25,2021-2-18T02:04:27Z
2021-02-18T00:06:26Z,42.805,6.029,13.2981,4.60019,2470.227,2021-2-18T02:07:30Z
2021-02-18T00:09:29Z,42.805,6.029,13.2982,4.60011,2470.227,2021-2-18T02:10:34Z
2021-02-18T00:12:33Z,42.805,6.029,13.2982,4.60010,2470.227,2021-2-18T02:13:37Z
2021-02-18T00:15:36Z,42.805,6.029,13.2979,4.60007,2470.24,2021-2-18T02:16:40Z
2021-02-18T00:18:39Z,42.805,6.029,13.2979,4.60008,2470.227,2021-2-18T02:19:43Z
2021-02-18T00:21:42Z,42.805,6.029,13.2982,4.60015,2470.227,2021-2-18T02:22:46Z
2021-02-18T00:24:45Z,42.805,6.029,13.2979,4.60011,2470.24,2021-2-18T02:25:49Z
2021-02-18T00:27:48Z,42.805,6.029,13.2982,4.60010,2470.227,2021-2-18T02:28:52Z
2021-02-18T00:30:51Z,42.805,6.029,13.2983,4.60010,2470.227,2021-2-18T02:31:55Z
2021-02-18T00:33:54Z,42.805,6.029,13.2984,4.60019,2470.227,2021-2-18T02:34:59Z
2021-02-18T00:36:58Z,42.805,6.029,13.2986,4.60021,2470.227,2021-2-18T02:38:02Z
2021-02-18T00:40:01Z,42.805,6.029,13.2986,4.60052,2470.203,2021-2-18T02:41:05Z
2021-02-18T00:43:04Z,42.805,6.029,13.2983,4.60004,2470.203,2021-2-18T02:44:08Z
2021-02-18T00:46:07Z,42.805,6.029,13.2982,4.60007,2470.217,2021-2-18T02:47:11Z
2021-02-18T00:49:10Z,42.805,6.029,13.2983,4.60011,2470.203,2021-2-18T02:50:14Z
2021-02-18T00:52:13Z,42.805,6.029,13.2986,4.60006,2470.203,2021-2-18T02:53:17Z
2021-02-18T00:55:16Z,42.805,6.029,13.2981,4.60003,2470.203,2021-2-18T02:56:20Z
2021-02-18T00:58:19Z,42.805,6.029,13.2986,4.60000,2470.227,2021-2-18T02:59:24Z
2021-02-18T01:01:23Z,42.805,6.029,13.2981,4.60001,2470.217,2021-2-18T03:02:27Z
2021-02-18T01:04:26Z,42.805,6.029,13.2980,4.60002,2470.203,2021-2-18T03:05:30Z
2021-02-18T01:07:29Z,42.805,6.029,13.2980,4.60009,2470.203,2021-2-18T03:08:33Z
2021-02-18T01:10:32Z,42.805,6.029,13.2982,4.60009,2470.227,2021-2-18T03:11:36Z
2021-02-18T01:13:35Z,42.805,6.029,13.2976,4.60011,2470.203,2021-2-18T03:14:39Z
2021-02-18T01:16:38Z,42.805,6.029,13.2979,4.60018,2470.194,2021-2-18T03:17:42Z
2021-02-18T01:19:41Z,42.805,6.029,13.2982,4.60017,2470.217,2021-2-18T03:20:45Z
2021-02-18T01:22:44Z,42.805,6.029,13.2979,4.60014,2470.217,2021-2-18T03:23:49Z
2021-02-18T01:25:48Z,42.805,6.029,13.2980,4.60019,2470.203,2021-2-18T03:26:52Z
2021-02-18T01:28:51Z,42.805,6.029,13.2976,4.60029,2470.217,2021-2-18T03:29:55Z
2021-02-18T01:31:54Z,42.805,6.029,13.2982,4.60034,2470.227,2021-2-18T03:32:58Z
2021-02-18T01:34:57Z,42.805,6.029,13.2982,4.60036,2470.18,2021-2-18T03:36:01Z
2021-02-18T01:38:00Z,42.805,6.029,13.2980,4.60042,2470.194,2021-2-18T03:39:04Z
2021-02-18T01:41:03Z,42.805,6.029,13.2982,4.60046,2470.203,2021-2-18T03:42:07Z
2021-02-18T01:44:06Z,42.805,6.029,13.2982,4.60050,2470.203,2021-2-18T03:45:10Z
2021-02-18T01:47:09Z,42.805,6.029,13.2985,4.60077,2470.203,2021-2-18T03:48:13Z
2021-02-18T01:50:13Z,42.805,6.029,13.2982,4.60101,2470.203,2021-2-18T03:51:17Z
2021-02-18T01:53:16Z,42.805,6.029,13.3009,4.60072,2470.194,2021-2-18T03:54:20Z
2021-02-18T01:56:19Z,42.805,6.029,13.3071,4.60053,2470.171,2021-2-18T03:57:23Z
2021-02-18T01:59:22Z,42.805,6.029,13.2996,4.60031,2470.194,2021-2-18T04:00:26Z
2021-02-18T02:02:25Z,42.805,6.029,13.3006,4.60063,2470.171,2021-2-18T04:03:29Z
2021-02-18T02:05:28Z,42.805,6.029,13.3019,4.60069,2470.194,2021-2-18T04:06:32Z
2021-02-18T02:08:31Z,42.805,6.029,13.3048,4.60092,2470.18,2021-2-18T04:09:35Z
2021-02-18T02:11:34Z,42.805,6.029,13.3045,4.60059,2470.156,2021-2-18T04:12:38Z
2021-02-18T02:14:37Z,42.805,6.029,13.3048,4.60042,2470.217,2021-2-18T04:15:42Z
2021-02-18T02:17:41Z,42.805,6.029,13.3038,4.60046,2470.194,2021-2-18T04:18:45Z
2021-02-18T02:20:44Z,42.805,6.029,13.3045,4.60037,2470.194,2021-2-18T04:21:48Z
2021-02-18T02:23:47Z,42.805,6.029,13.3066,4.60031,2470.171,2021-2-18T04:24:51Z
2021-02-18T02:26:50Z,42.805,6.029,13.3051,4.60046,2470.18,2021-2-18T04:27:54Z
2021-02-18T02:29:53Z,42.805,6.029,13.3051,4.60041,2470.18,2021-2-18T04:30:57Z
2021-02-18T02:32:56Z,42.805,6.029,13.3044,4.60035,2470.194,2021-2-18T04:34:00Z
2021-02-18T02:35:59Z,42.805,6.029,13.3048,4.60036,2470.203,2021-2-18T04:37:03Z
2021-02-18T02:39:02Z,42.805,6.029,13.3069,4.60080,2470.171,2021-2-18T04:40:07Z
2021-02-18T02:42:06Z,42.805,6.029,13.3093,4.60081,2470.171,2021-2-18T04:43:10Z
2021-02-18T02:45:09Z,42.805,6.029,13.3082,4.60066,2470.171,2021-2-18T04:46:13Z
2021-02-18T02:48:12Z,42.805,6.029,13.3082,4.60030,2470.194,2021-2-18T04:49:16Z
2021-02-18T02:51:15Z,42.805,6.029,13.3059,4.60034,2470.217,2021-2-18T04:52:19Z
2021-02-18T02:54:18Z,42.805,6.029,13.3053,4.60021,2470.147,2021-2-18T04:55:22Z
2021-02-18T02:57:21Z,42.805,6.029,13.3037,4.60021,2470.171,2021-2-18T04:58:25Z
2021-02-18T03:00:24Z,42.805,6.029,13.3039,4.60046,2470.156,2021-2-18T05:01:28Z
2021-02-18T03:03:27Z,42.805,6.029,13.3006,4.60054,2470.156,2021-2-18T05:04:32Z
2021-02-18T03:06:31Z,42.805,6.029,13.3031,4.60052,2470.156,2021-2-18T05:07:35Z
2021-02-18T03:09:34Z,42.805,6.029,13.3052,4.60084,2470.194,2021-2-18T05:10:38Z
2021-02-18T03:12:37Z,42.805,6.029,13.3010,4.60051,2470.147,2021-2-18T05:13:41Z
2021-02-18T03:15:40Z,42.805,6.029,13.2998,4.60056,2470.171,2021-2-18T05:16:44Z
2021-02-18T03:18:43Z,42.805,6.029,13.2993,4.60073,2470.156,2021-2-18T05:19:47Z
2021-02-18T03:21:46Z,42.805,6.029,13.2986,4.60103,2470.171,2021-2-18T05:22:50Z
2021-02-18T03:24:49Z,42.805,6.029,13.3001,4.60031,2470.194,2021-2-18T05:25:53Z
2021-02-18T03:27:52Z,42.805,6.029,13.2998,4.60029,2470.18,2021-2-18T05:28:57Z
2021-02-18T03:30:56Z,42.805,6.029,13.2996,4.60064,2470.171,2021-2-18T05:32:00Z
2021-02-18T03:33:59Z,42.805,6.029,13.2986,4.60085,2470.171,2021-2-18T05:35:03Z
2021-02-18T03:37:02Z,42.805,6.029,13.2984,4.60059,2470.133,2021-2-18T05:38:06Z
2021-02-18T03:40:05Z,42.805,6.029,13.2982,4.60067,2470.156,2021-2-18T05:41:09Z
2021-02-18T03:43:08Z,42.805,6.029,13.2983,4.60079,2470.194,2021-2-18T05:44:12Z
2021-02-18T03:46:11Z,42.805,6.029,13.2982,4.60032,2470.171,2021-2-18T05:47:15Z
2021-02-18T03:49:14Z,42.805,6.029,13.2983,4.60033,2470.171,2021-2-18T05:50:18Z
2021-02-18T03:52:17Z,42.805,6.029,13.2980,4.60019,2470.156,2021-2-18T05:53:22Z
2021-02-18T03:55:21Z,42.805,6.029,13.2983,4.60017,2470.194,2021-2-18T05:56:25Z
2021-02-18T03:58:24Z,42.805,6.029,13.2981,4.60026,2470.156,2021-2-18T05:59:28Z
2021-02-18T04:01:27Z,42.805,6.029,13.2991,4.60014,2470.171,2021-2-18T06:02:31Z
2021-02-18T04:04:30Z,42.805,6.029,13.2983,4.60037,2470.171,2021-2-18T06:05:34Z
2021-02-18T04:07:33Z,42.805,6.029,13.2983,4.60043,2470.156,2021-2-18T06:08:37Z
2021-02-18T04:10:36Z,42.805,6.029,13.2983,4.60014,2470.171,2021-2-18T06:11:40Z
2021-02-18T04:13:39Z,42.805,6.029,13.2982,4.60011,2470.171,2021-2-18T06:14:43Z
2021-02-18T04:16:42Z,42.805,6.029,13.2983,4.60009,2470.147,2021-2-18T06:17:47Z
2021-02-18T04:19:46Z,42.805,6.029,13.2985,4.60008,2470.147,2021-2-18T06:20:50Z
2021-02-18T04:22:49Z,42.805,6.029,13.2982,4.60016,2470.171,2021-2-18T06:23:53Z
2021-02-18T04:25:52Z,42.805,6.029,13.2986,4.60015,2470.156,2021-2-18T06:26:56Z
2021-02-18T04:28:55Z,42.805,6.029,13.2982,4.60020,2470.194,2021-2-18T06:29:59Z
2021-02-18T04:31:58Z,42.805,6.029,13.2984,4.60017,2470.143,2021-2-18T06:33:02Z
2021-02-18T04:35:01Z,42.805,6.029,13.2986,4.60009,2470.156,2021-2-18T06:36:05Z
2021-02-18T04:38:04Z,42.805,6.029,13.2983,4.60008,2470.171,2021-2-18T06:39:08Z
2021-02-18T04:41:07Z,42.805,6.029,13.2983,4.60004,2470.156,2021-2-18T06:42:12Z
2021-02-18T04:44:11Z,42.805,6.029,13.2985,4.60009,2470.171,2021-2-18T06:45:15Z
2021-02-18T04:47:14Z,42.805,6.029,13.2983,4.60008,2470.156,2021-2-18T06:48:18Z
2021-02-18T04:50:17Z,42.805,6.029,13.2981,4.60006,2470.171,2021-2-18T06:51:21Z
2021-02-18T04:53:20Z,42.805,6.029,13.2982,4.59999,2470.156,2021-2-18T06:54:24Z
2021-02-18T04:56:23Z,42.805,6.029,13.2980,4.59996,2470.156,2021-2-18T06:57:27Z
2021-02-18T04:59:26Z,42.805,6.029,13.2982,4.59996,2470.156,2021-2-18T07:00:30Z
2021-02-18T05:02:29Z,42.805,6.029,13.2981,4.59998,2470.171,2021-2-18T07:03:33Z
2021-02-18T05:05:32Z,42.805,6.029,13.2982,4.59998,2470.156,2021-2-18T07:06:37Z
2021-02-18T05:08:35Z,42.805,6.029,13.2983,4.59995,2470.18,2021-2-18T07:09:40Z
2021-02-18T05:11:39Z,42.805,6.029,13.2979,4.60000,2470.171,2021-2-18T07:12:43Z
2021-02-18T05:14:42Z,42.805,6.029,13.2982,4.60003,2470.147,2021-2-18T07:15:46Z
2021-02-18T05:17:45Z,42.805,6.029,13.2982,4.60001,2470.156,2021-2-18T07:18:49Z
2021-02-18T05:20:48Z,42.805,6.029,13.2979,4.60004,2470.147,2021-2-18T07:21:52Z
2021-02-18T05:23:51Z,42.805,6.029,13.2987,4.59996,2470.171,2021-2-18T07:24:55Z
2021-02-18T05:26:54Z,42.805,6.029,13.2982,4.59994,2470.156,2021-2-18T07:27:58Z
2021-02-18T05:29:57Z,42.805,6.029,13.2983,4.59997,2470.119,2021-2-18T07:31:01Z
2021-02-18T05:33:00Z,42.805,6.029,13.2982,4.59993,2470.18,2021-2-18T07:34:05Z
2021-02-18T05:36:04Z,42.805,6.029,13.2984,4.59995,2470.147,2021-2-18T07:37:08Z
2021-02-18T05:39:07Z,42.805,6.029,13.2981,4.59996,2470.18,2021-2-18T07:40:11Z
2021-02-18T05:42:10Z,42.805,6.029,13.2982,4.60003,2470.171,2021-2-18T07:43:14Z
2021-02-18T05:45:13Z,42.805,6.029,13.2980,4.59999,2470.171,2021-2-18T07:46:17Z
2021-02-18T05:48:16Z,42.805,6.029,13.2983,4.59994,2470.171,2021-2-18T07:49:20Z
2021-02-18T05:51:19Z,42.805,6.029,13.2982,4.59996,2470.171,2021-2-18T07:52:23Z
2021-02-18T05:54:22Z,42.805,6.029,13.2981,4.59993,2470.18,2021-2-18T07:55:26Z
2021-02-18T05:57:25Z,42.805,6.029,13.2979,4.59992,2470.171,2021-2-18T07:58:30Z
2021-02-18T06:00:29Z,42.805,6.029,13.2982,4.59991,2470.194,2021-2-18T08:01:33Z
2021-02-18T06:03:32Z,42.805,6.029,13.2986,4.59993,2470.171,2021-2-18T08:04:36Z
2021-02-18T06:06:35Z,42.805,6.029,13.2979,4.59990,2470.11,2021-2-18T08:07:39Z
2021-02-18T06:09:38Z,42.805,6.029,13.2982,4.59990,2470.156,2021-2-18T08:10:42Z
2021-02-18T06:12:41Z,42.805,6.029,13.2983,4.59995,2470.156,2021-2-18T08:13:45Z
2021-02-18T06:15:44Z,42.805,6.029,13.2983,4.59999,2470.133,2021-2-18T08:16:48Z
2021-02-18T06:18:47Z,42.805,6.029,13.2982,4.59992,2470.133,2021-2-18T08:19:51Z
2021-02-18T06:21:50Z,42.805,6.029,13.2979,4.59991,2470.171,2021-2-18T08:22:55Z
2021-02-18T06:24:54Z,42.805,6.029,13.2981,4.59992,2470.171,2021-2-18T08:25:58Z
2021-02-18T06:27:57Z,42.805,6.029,13.2985,4.60000,2470.18,2021-2-18T08:29:01Z
2021-02-18T06:31:00Z,42.805,6.029,13.2982,4.59991,2470.143,2021-2-18T08:32:04Z
2021-02-18T06:34:03Z,42.805,6.029,13.2982,4.59993,2470.203,2021-2-18T08:35:07Z
2021-02-18T06:37:06Z,42.805,6.029,13.2980,4.59994,2470.18,2021-2-18T08:38:10Z
2021-02-18T06:40:09Z,42.805,6.029,13.2983,4.59991,2470.18,2021-2-18T08:41:13Z
2021-02-18T06:43:12Z,42.805,6.029,13.2983,4.59995,2470.156,2021-2-18T08:44:16Z
2021-02-18T06:46:15Z,42.805,6.029,13.2982,4.59991,2470.18,2021-2-18T08:47:20Z
2021-02-18T06:49:19Z,42.805,6.029,13.2984,4.59991,2470.156,2021-2-18T08:50:23Z
2021-02-18T06:52:22Z,42.805,6.029,13.2980,4.59991,2470.156,2021-2-18T08:53:26Z
2021-02-18T06:55:25Z,42.805,6.029,13.2980,4.59992,2470.156,2021-2-18T08:56:29Z
2021-02-18T06:58:28Z,42.805,6.029,13.2982,4.59992,2470.194,2021-2-18T08:59:32Z
2021-02-18T07:01:31Z,42.805,6.029,13.2982,4.59991,2470.156,2021-2-18T09:02:35Z
2021-02-18T07:04:34Z,42.805,6.029,13.2983,4.59991,2470.147,2021-2-18T09:05:38Z
2021-02-18T07:07:37Z,42.805,6.029,13.2979,4.59990,2470.194,2021-2-18T09:08:41Z
2021-02-18T07:10:40Z,42.805,6.029,13.2981,4.59991,2470.194,2021-2-18T09:11:45Z
2021-02-18T07:13:44Z,42.805,6.029,13.2979,4.59993,2470.133,2021-2-18T09:14:48Z
2021-02-18T07:16:47Z,42.805,6.029,13.2983,4.59991,2470.156,2021-2-18T09:17:51Z
2021-02-18T07:19:50Z,42.805,6.029,13.2979,4.59992,2470.18,2021-2-18T09:20:54Z
2021-02-18T07:22:53Z,42.805,6.029,13.2979,4.59992,2470.203,2021-2-18T09:23:57Z
2021-02-18T07:25:56Z,42.805,6.029,13.2980,4.59997,2470.156,2021-2-18T09:27:00Z
2021-02-18T07:28:59Z,42.805,6.029,13.2988,4.59997,2470.18,2021-2-18T09:30:03Z
2021-02-18T07:32:02Z,42.805,6.029,13.2981,4.59998,2470.18,2021-2-18T09:33:06Z
2021-02-18T07:35:05Z,42.805,6.029,13.2979,4.59991,2470.18,2021-2-18T09:36:10Z
2021-02-18T07:38:09Z,42.805,6.029,13.2983,4.59993,2470.227,2021-2-18T09:39:13Z
2021-02-18T07:41:12Z,42.805,6.029,13.2979,4.59994,2470.217,2021-2-18T09:42:16Z
2021-02-18T07:44:15Z,42.805,6.029,13.2978,4.59992,2470.18,2021-2-18T09:45:19Z
2021-02-18T07:47:18Z,42.805,6.029,13.2982,4.59992,2470.18,2021-2-18T09:48:22Z
2021-02-18T07:50:21Z,42.805,6.029,13.2981,4.59994,2470.18,2021-2-18T09:51:25Z
2021-02-18T07:53:24Z,42.805,6.029,13.2979,4.60001,2470.194,2021-2-18T09:54:28Z
2021-02-18T07:56:27Z,42.805,6.029,13.2984,4.59993,2470.217,2021-2-18T09:57:31Z
2021-02-18T07:59:30Z,42.805,6.029,13.2985,4.60001,2470.194,2021-2-18T10:00:35Z
2021-02-18T08:02:34Z,42.805,6.029,13.2980,4.60000,2470.203,2021-2-18T10:03:38Z
2021-02-18T08:05:37Z,42.805,6.029,13.2982,4.59994,2470.194,2021-2-18T10:06:41Z
2021-02-18T08:08:40Z,42.805,6.029,13.2983,4.59996,2470.217,2021-2-18T10:09:44Z
2021-02-18T08:11:43Z,42.805,6.029,13.2984,4.59993,2470.24,2021-2-18T10:12:47Z
2021-02-18T08:14:46Z,42.805,6.029,13.2985,4.60000,2470.18,2021-2-18T10:15:50Z
2021-02-18T08:17:49Z,42.805,6.029,13.2981,4.59995,2470.227,2021-2-18T10:18:53Z
2021-02-18T08:20:52Z,42.805,6.029,13.2982,4.60002,2470.227,2021-2-18T10:21:56Z
2021-02-18T08:23:55Z,42.805,6.029,13.2979,4.59993,2470.217,2021-2-18T10:25:00Z
2021-02-18T08:26:59Z,42.805,6.029,13.2981,4.59992,2470.227,2021-2-18T10:28:03Z
2021-02-18T08:30:02Z,42.805,6.029,13.2983,4.59996,2470.227,2021-2-18T10:31:06Z
2021-02-18T08:33:05Z,42.805,6.029,13.2982,4.59999,2470.24,2021-2-18T10:34:09Z
2021-02-18T08:36:08Z,42.805,6.029,13.2982,4.60000,2470.203,2021-2-18T10:37:12Z
2021-02-18T08:39:11Z,42.805,6.029,13.2984,4.59997,2470.25,2021-2-18T10:40:15Z
2021-02-18T08:42:14Z,42.805,6.029,13.2983,4.59999,2470.24,2021-2-18T10:43:18Z
2021-02-18T08:45:17Z,42.805,6.029,13.2983,4.59994,2470.24,2021-2-18T10:46:21Z
2021-02-18T08:48:20Z,42.805,6.029,13.2979,4.59994,2470.203,2021-2-18T10:49:25Z
2021-02-18T08:51:24Z,42.805,6.029,13.2983,4.59997,2470.24,2021-2-18T10:52:28Z
2021-02-18T08:54:27Z,42.805,6.029,13.2982,4.59994,2470.264,2021-2-18T10:55:31Z
2021-02-18T08:57:30Z,42.805,6.029,13.2981,4.59994,2470.25,2021-2-18T10:58:34Z
2021-02-18T09:00:33Z,42.805,6.029,13.2983,4.60003,2470.25,2021-2-18T11:01:37Z
2021-02-18T09:03:36Z,42.805,6.029,13.2984,4.59996,2470.264,2021-2-18T11:04:40Z
2021-02-18T09:06:39Z,42.805,6.029,13.2982,4.59994,2470.264,2021-2-18T11:07:43Z
2021-02-18T09:09:42Z,42.805,6.029,13.2985,4.59991,2470.273,2021-2-18T11:10:46Z
2021-02-18T09:12:45Z,42.805,6.029,13.2980,4.59993,2470.227,2021-2-18T11:13:50Z
2021-02-18T09:15:49Z,42.805,6.029,13.2982,4.59991,2470.273,2021-2-18T11:16:53Z
2021-02-18T09:18:52Z,42.805,6.029,13.2984,4.59992,2470.227,2021-2-18T11:19:56Z
2021-02-18T09:21:55Z,42.805,6.029,13.2982,4.59991,2470.25,2021-2-18T11:22:59Z
2021-02-18T09:24:58Z,42.805,6.029,13.2978,4.59991,2470.273,2021-2-18T11:26:02Z
2021-02-18T09:28:01Z,42.805,6.029,13.2983,4.59991,2470.25,2021-2-18T11:29:05Z
2021-02-18T09:31:04Z,42.805,6.029,13.2981,4.59993,2470.273,2021-2-18T11:32:08Z
2021-02-18T09:34:07Z,42.805,6.029,13.2980,4.59994,2470.273,2021-2-18T11:35:11Z
2021-02-18T09:37:10Z,42.805,6.029,13.2983,4.59991,2470.273,2021-2-18T11:38:15Z
2021-02-18T09:40:14Z,42.805,6.029,13.2978,4.59991,2470.273,2021-2-18T11:41:18Z
2021-02-18T09:43:17Z,42.805,6.029,13.2985,4.59993,2470.287,2021-2-18T11:44:21Z
2021-02-18T09:46:20Z,42.805,6.029,13.2982,4.59992,2470.264,2021-2-18T11:47:24Z
2021-02-18T09:49:23Z,42.805,6.029,13.2984,4.59994,2470.273,2021-2-18T11:50:27Z
2021-02-18T09:52:26Z,42.805,6.029,13.2984,4.59992,2470.273,2021-2-18T11:53:30Z
2021-02-18T09:55:29Z,42.805,6.029,13.2982,4.59994,2470.273,2021-2-18T11:56:33Z
2021-02-18T09:58:32Z,42.805,6.029,13.2984,4.59991,2470.287,2021-2-18T11:59:37Z
2021-02-18T10:01:36Z,42.805,6.029,13.2983,4.59991,2470.297,2021-2-18T12:02:40Z
2021-02-18T10:04:39Z,42.805,6.029,13.2983,4.59993,2470.273,2021-2-18T12:05:43Z
2021-02-18T10:07:42Z,42.805,6.029,13.2981,4.59989,2470.297,2021-2-18T12:08:46Z
2021-02-18T10:10:45Z,42.805,6.029,13.2983,4.59998,2470.297,2021-2-18T12:11:49Z
2021-02-18T10:13:48Z,42.805,6.029,13.2986,4.59991,2470.297,2021-2-18T12:14:52Z
2021-02-18T10:16:51Z,42.805,6.029,13.2979,4.59993,2470.273,2021-2-18T12:17:55Z
2021-02-18T10:19:54Z,42.805,6.029,13.2982,4.59995,2470.273,2021-2-18T12:20:58Z
2021-02-18T10:22:57Z,42.805,6.029,13.2983,4.59991,2470.31,2021-2-18T12:24:02Z
2021-02-18T10:26:01Z,42.805,6.029,13.2983,4.59996,2470.297,2021-2-18T12:27:05Z
2021-02-18T10:29:04Z,42.805,6.029,13.2979,4.59996,2470.287,2021-2-18T12:30:08Z
2021-02-18T10:32:07Z,42.805,6.029,13.2986,4.59996,2470.297,2021-2-18T12:33:11Z
2021-02-18T10:35:10Z,42.805,6.029,13.2982,4.59999,2470.287,2021-2-18T12:36:14Z
2021-02-18T10:38:13Z,42.805,6.029,13.2982,4.59998,2470.283,2021-2-18T12:39:17Z
2021-02-18T10:41:16Z,42.805,6.029,13.2982,4.59992,2470.31,2021-2-18T12:42:20Z
2021-02-18T10:44:19Z,42.805,6.029,13.2983,4.59994,2470.32,2021-2-18T12:45:23Z
2021-02-18T10:47:22Z,42.805,6.029,13.2983,4.59995,2470.273,2021-2-18T12:48:27Z
2021-02-18T10:50:26Z,42.805,6.029,13.2986,4.59994,2470.287,2021-2-18T12:51:30Z
2021-02-18T10:53:29Z,42.805,6.029,13.2982,4.59992,2470.31,2021-2-18T12:54:33Z
2021-02-18T10:56:32Z,42.805,6.029,13.2983,4.59990,2470.287,2021-2-18T12:57:36Z
2021-02-18T10:59:35Z,42.805,6.029,13.2983,4.59989,2470.297,2021-2-18T13:00:39Z
2021-02-18T11:02:38Z,42.805,6.029,13.2982,4.59996,2470.32,2021-2-18T13:03:42Z
2021-02-18T11:05:41Z,42.805,6.029,13.2984,4.59995,2470.31,2021-2-18T13:06:45Z
2021-02-18T11:08:44Z,42.805,6.029,13.2983,4.59995,2470.273,2021-2-18T13:09:48Z
2021-02-18T11:11:47Z,42.805,6.029,13.2984,4.59993,2470.297,2021-2-18T13:12:52Z
2021-02-18T11:14:51Z,42.805,6.029,13.2981,4.59992,2470.273,2021-2-18T13:15:55Z
2021-02-18T11:17:54Z,42.805,6.029,13.2983,4.59999,2470.273,2021-2-18T13:18:58Z
2021-02-18T11:20:57Z,42.805,6.029,13.2982,4.59993,2470.297,2021-2-18T13:22:01Z
2021-02-18T11:24:00Z,42.805,6.029,13.2982,4.59994,2470.334,2021-2-18T13:25:04Z
2021-02-18T11:27:03Z,42.805,6.029,13.2985,4.59999,2470.297,2021-2-18T13:28:07Z
2021-02-18T11:30:06Z,42.805,6.029,13.2981,4.59992,2470.287,2021-2-18T13:31:10Z
2021-02-18T11:33:09Z,42.805,6.029,13.2983,4.59990,2470.273,2021-2-18T13:34:13Z
2021-02-18T11:36:12Z,42.805,6.029,13.2979,4.59990,2470.273,2021-2-18T13:37:17Z
2021-02-18T11:39:16Z,42.805,6.029,13.2984,4.59991,2470.31,2021-2-18T13:40:20Z
2021-02-18T11:42:19Z,42.805,6.029,13.2981,4.59991,2470.273,2021-2-18T13:43:23Z
2021-02-18T11:45:22Z,42.805,6.029,13.2983,4.59990,2470.31,2021-2-18T13:46:26Z
2021-02-18T11:48:25Z,42.805,6.029,13.2982,4.59991,2470.31,2021-2-18T13:49:29Z
2021-02-18T11:51:28Z,42.805,6.029,13.2980,4.59997,2470.273,2021-2-18T13:52:32Z
2021-02-18T11:54:31Z,42.805,6.029,13.2980,4.59991,2470.297,2021-2-18T13:55:35Z
2021-02-18T11:57:34Z,42.805,6.029,13.2980,4.59991,2470.287,2021-2-18T13:58:39Z
2021-02-18T12:00:38Z,42.805,6.029,13.2981,4.59991,2470.297,2021-2-18T14:01:42Z
2021-02-18T12:03:41Z,42.805,6.029,13.2979,4.59991,2470.297,2021-2-18T14:04:45Z
2021-02-18T12:06:44Z,42.805,6.029,13.2983,4.59991,2470.264,2021-2-18T14:07:48Z
2021-02-18T12:09:47Z,42.805,6.029,13.2981,4.59993,2470.297,2021-2-18T14:10:51Z
2021-02-18T12:12:50Z,42.805,6.029,13.2981,4.59991,2470.297,2021-2-18T14:13:54Z
2021-02-18T12:15:53Z,42.805,6.029,13.2982,4.59991,2470.287,2021-2-18T14:16:57Z
2021-02-18T12:18:56Z,42.805,6.029,13.2983,4.59991,2470.273,2021-2-18T14:20:00Z
2021-02-18T12:21:59Z,42.805,6.029,13.2984,4.59994,2470.25,2021-2-18T14:23:04Z
2021-02-18T12:25:03Z,42.805,6.029,13.2983,4.59991,2470.287,2021-2-18T14:26:07Z
2021-02-18T12:28:06Z,42.805,6.029,13.2982,4.59993,2470.297,2021-2-18T14:29:10Z
2021-02-18T12:31:09Z,42.805,6.029,13.2982,4.59990,2470.283,2021-2-18T14:32:13Z
2021-02-18T12:34:12Z,42.805,6.029,13.2983,4.59990,2470.264,2021-2-18T14:35:16Z
2021-02-18T12:37:15Z,42.805,6.029,13.2985,4.59993,2470.297,2021-2-18T14:38:19Z
2021-02-18T12:40:18Z,42.805,6.029,13.2982,4.59990,2470.25,2021-2-18T14:41:22Z
2021-02-18T12:43:21Z,42.805,6.029,13.2981,4.59992,2470.297,2021-2-18T14:44:25Z
2021-02-18T12:46:24Z,42.805,6.029,13.2984,4.59990,2470.264,2021-2-18T14:47:29Z
2021-02-18T12:49:28Z,42.805,6.029,13.2985,4.59992,2470.25,2021-2-18T14:50:32Z
2021-02-18T12:52:31Z,42.805,6.029,13.2986,4.59992,2470.25,2021-2-18T14:53:35Z
2021-02-18T12:55:34Z,42.805,6.029,13.2983,4.59992,2470.25,2021-2-18T14:56:38Z
2021-02-18T12:58:37Z,42.805,6.029,13.2983,4.59998,2470.273,2021-2-18T14:59:41Z
2021-02-18T13:01:40Z,42.805,6.029,13.2982,4.59996,2470.287,2021-2-18T15:02:44Z
2021-02-18T13:04:43Z,42.805,6.029,13.2983,4.59994,2470.26,2021-2-18T15:05:47Z
2021-02-18T13:07:46Z,42.805,6.029,13.2984,4.59998,2470.273,2021-2-18T15:08:51Z
2021-02-18T13:10:49Z,42.805,6.029,13.2984,4.59994,2470.25,2021-2-18T15:11:54Z
2021-02-18T13:13:53Z,42.805,6.029,13.2982,4.59993,2470.264,2021-2-18T15:14:57Z
2021-02-18T13:16:56Z,42.805,6.029,13.2982,4.59994,2470.25,2021-2-18T15:18:00Z
2021-02-18T13:19:59Z,42.805,6.029,13.2984,4.59997,2470.25,2021-2-18T15:21:03Z
2021-02-18T13:23:02Z,42.805,6.029,13.2986,4.59992,2470.25,2021-2-18T15:24:06Z
2021-02-18T13:26:05Z,42.805,6.029,13.2982,4.59993,2470.25,2021-2-18T15:27:09Z
2021-02-18T13:29:08Z,42.805,6.029,13.2982,4.59997,2470.287,2021-2-18T15:30:12Z
2021-02-18T13:32:11Z,42.805,6.029,13.2982,4.59993,2470.273,2021-2-18T15:33:16Z
2021-02-18T13:35:15Z,42.805,6.029,13.2982,4.59994,2470.273,2021-2-18T15:36:19Z
2021-02-18T13:38:18Z,42.805,6.029,13.2984,4.59992,2470.25,2021-2-18T15:39:22Z
2021-02-18T13:41:21Z,42.805,6.029,13.2982,4.59992,2470.25,2021-2-18T15:42:25Z
2021-02-18T13:44:24Z,42.805,6.029,13.2982,4.59999,2470.24,2021-2-18T15:45:28Z
2021-02-18T13:47:27Z,42.805,6.029,13.2983,4.59997,2470.25,2021-2-18T15:48:31Z
2021-02-18T13:50:30Z,42.805,6.029,13.2979,4.60001,2470.24,2021-2-18T15:51:34Z
2021-02-18T13:53:33Z,42.805,6.029,13.2983,4.60008,2470.227,2021-2-18T15:54:37Z
2021-02-18T13:56:36Z,42.805,6.029,13.2982,4.60009,2470.25,2021-2-18T15:57:41Z
2021-02-18T13:59:40Z,42.805,6.029,13.2984,4.60009,2470.24,2021-2-18T16:00:44Z
2021-02-18T14:02:43Z,42.805,6.029,13.2983,4.60002,2470.227,2021-2-18T16:03:47Z
2021-02-18T14:05:46Z,42.805,6.029,13.2982,4.59996,2470.203,2021-2-18T16:06:50Z
2021-02-18T14:08:49Z,42.805,6.029,13.2977,4.59999,2470.227,2021-2-18T16:09:53Z
2021-02-18T14:11:52Z,42.805,6.029,13.2984,4.59996,2470.264,2021-2-18T16:12:56Z
2021-02-18T14:14:55Z,42.805,6.029,13.2984,4.59996,2470.25,2021-2-18T16:15:59Z
2021-02-18T14:17:58Z,42.805,6.029,13.2986,4.60004,2470.227,2021-2-18T16:19:02Z
2021-02-18T14:21:01Z,42.805,6.029,13.2980,4.59996,2470.264,2021-2-18T16:22:06Z
2021-02-18T14:24:05Z,42.805,6.029,13.2982,4.59998,2470.203,2021-2-18T16:25:09Z
2021-02-18T14:27:08Z,42.805,6.029,13.2983,4.59995,2470.217,2021-2-18T16:28:12Z
2021-02-18T14:30:11Z,42.805,6.029,13.2982,4.59995,2470.227,2021-2-18T16:31:15Z
2021-02-18T14:33:14Z,42.805,6.029,13.2981,4.59997,2470.24,2021-2-18T16:34:18Z
2021-02-18T14:36:17Z,42.805,6.029,13.2981,4.60005,2470.24,2021-2-18T16:37:21Z
2021-02-18T14:39:20Z,42.805,6.029,13.2983,4.59994,2470.227,2021-2-18T16:40:24Z
2021-02-18T14:42:23Z,42.805,6.029,13.2978,4.59992,2470.194,2021-2-18T16:43:27Z
2021-02-18T14:45:26Z,42.805,6.029,13.2983,4.60003,2470.24,2021-2-18T16:46:31Z
2021-02-18T14:48:30Z,42.805,6.029,13.2983,4.59997,2470.18,2021-2-18T16:49:34Z
2021-02-18T14:51:33Z,42.805,6.029,13.2982,4.60000,2470.24,2021-2-18T16:52:37Z
2021-02-18T14:54:36Z,42.805,6.029,13.2978,4.59999,2470.203,2021-2-18T16:55:40Z
2021-02-18T14:57:39Z,42.805,6.029,13.2983,4.60001,2470.18,2021-2-18T16:58:43Z
2021-02-18T15:00:42Z,42.805,6.029,13.2988,4.59998,2470.18,2021-2-18T17:01:46Z
2021-02-18T15:03:45Z,42.805,6.029,13.2983,4.59996,2470.203,2021-2-18T17:04:49Z
2021-02-18T15:06:48Z,42.805,6.029,13.2982,4.60000,2470.217,2021-2-18T17:07:52Z
2021-02-18T15:09:51Z,42.805,6.029,13.2982,4.59996,2470.203,2021-2-18T17:10:56Z